Regional Weather Roundup
Issued by NWS Sioux Falls, SD

Home | Current Version | Previous Version | Text Only | Print | Product List | Glossary Off
Versions: 1 2 3 4 5 6 7 8 9 10 11 12 13 14 15 16 17 18 19 20 21 22 23 24 25 26 27 28 29 30 31 32 33 34 35 36 37 38 39 40 41 42 43 44 45 46 47 48 49 50

000
ASUS43 KFSD 030802
RWRFSD

WEATHER ROUNDUP FOR SE SOUTH DAKOTA/SW MINNESOTA/NW IOWA
NATIONAL WEATHER SERVICE SIOUX FALLS SD
300 AM CDT SUN MAY 03 2015

NOTE: "FAIR" INDICATES FEW OR NO CLOUDS BELOW 12,000 FEET WITH NO
SIGNIFICANT WEATHER AND OR OBSTRUCTIONS TO VISIBILITY.


SDZ038>040-050-052>070-030900-
SOUTHEAST SOUTH DAKOTA

CITY           SKY/WX    TMP DP  RH WIND       PRES   REMARKS
BROOKINGS      MOCLDY    59  54  82 SE14      29.69F
CHAMBERLAIN    NOT AVBL
HURON          CLOUDY    63  54  72 E7        29.65F
MADISON        FAIR      59  59 100 S12G17    29.69F
MITCHELL       MOCLDY    60  55  83 CALM      29.69R
SIOUX FALLS    CLOUDY    62  54  74 S9        29.69F
WINNER         FAIR      62  38  40 SW6       29.69F
YANKTON        CLOUDY    72  52  49 S24G30    29.67F
$$

MNZ071-072-080-081-089-090-097-098-030900-
SOUTHWEST MINNESOTA

CITY           SKY/WX    TMP DP  RH WIND       PRES   REMARKS
FAIRMONT       MOCLDY    55  46  71 SE8       29.76S
JACKSON        MOCLDY    57  50  77 S12       29.75F
LUVERNE        CLOUDY    59  52  77 S6        29.72S
MARSHALL       MOCLDY    61  48  63 NE3       29.74R
MONTEVIDEO     MOCLDY    63  54  72 SE10      29.70F
REDWOOD FALLS  CLEAR     57  50  77 SE6       29.75R
TRACY          MOCLDY    59  52  77 S14G21    29.72S
WORTHINGTON    CLOUDY    57  48  72 S14       29.73F
$$

IAZ001>003-012>014-020>022-031-032-NEZ013-014-SDZ071-030900-
NORTHWEST IOWA

CITY           SKY/WX    TMP DP  RH WIND       PRES   REMARKS
DENISON        CLOUDY    72  43  35 S22G32    29.68F
ESTHERVILLE    CLOUDY    56  51  84 S13       29.74F
SIOUX CITY     CLOUDY    62  51  67 N3        29.72R
SPENCER        CLOUDY    56  52  86 SE8       29.74F
$$

ABBREVIATIONS USED IN REMARKS
   TC - TEMPERATURE IN CELSIUS
  WCI - WIND CHILL INDEX
   HX - HEAT INDEX
  VSB - VISIBILITY




USA.gov is the U.S. government's official web portal to all federal, state and local government web resources and services.